Location: Unspecified
(20.0000°S, 0.0000°E)
Time: 00:19:20
(UTC+00:00)

ITAMSAT 1 - Visible Passes

Search period start: 21 July 2019 00:00
Search period end: 31 July 2019 00:00
Orbit: 785 x 796 km, 98.9° (Epoch: 20 July)

Date Brightness Start Highest point End Pass type
(mag) Time Alt. Az. Time Alt. Az. Time Alt. Az.
21 Jul 10.6 03:17:52 10° E 03:18:08 10° E 03:18:08 10° E visible
21 Jul 7.7 04:53:10 10° N 04:58:13 53° WNW 04:58:53 50° WSW visible
22 Jul 7.8 04:23:42 10° NNE 04:28:51 70° ESE 04:29:07 68° SE visible
23 Jul 9.2 03:55:01 10° NE 03:59:23 32° ESE 03:59:23 32° ESE visible
23 Jul 9.0 05:35:22 10° NW 05:38:53 18° W 05:40:06 17° W visible
23 Jul 10.2 17:59:02 10° SSW 18:02:46 20° WSW 18:06:31 10° WNW visible
24 Jul 10.3 03:27:30 10° ENE 03:29:37 15° E 03:29:37 15° E visible
24 Jul 8.1 05:04:34 10° N 05:09:25 40° W 05:10:21 36° WSW visible
25 Jul 7.5 04:34:49 10° NNE 04:40:00 88° WNW 04:40:37 70° SSW visible
26 Jul 8.7 04:05:49 10° NE 04:10:41 42° ESE 04:10:53 42° ESE visible
26 Jul 9.3 05:47:34 10° NW 05:50:07 14° W 05:51:37 12° W visible
26 Jul 10.4 18:10:55 10° SW 18:13:52 15° WSW 18:16:48 10° WNW visible
27 Jul 9.9 03:37:46 10° ENE 03:41:09 20° ESE 03:41:09 20° ESE visible
27 Jul 8.4 05:16:06 10° NNW 05:20:36 30° W 05:21:53 27° WSW visible
28 Jul 7.5 04:46:02 10° N 04:51:10 67° WNW 04:52:09 54° SW visible
29 Jul 8.2 04:16:45 10° NNE 04:21:48 56° ESE 04:22:26 52° SE visible
29 Jul 10.7 18:23:22 10° SW 18:24:56 11° WSW 18:26:29 10° W visible
30 Jul 9.5 03:48:19 10° NE 03:52:33 26° ESE 03:52:43 26° ESE visible
30 Jul 8.8 05:27:47 10° NNW 05:31:48 23° W 05:33:27 20° WSW visible
